Location: Bratislava
(48.1500°N, 17.1170°E)
Time: 11:13:17
(UTC+01:00)

N. Korean satellite - Visible Passes

Search period start: 24 January 2019 00:00
Search period end: 03 February 2019 00:00
Orbit: 458 x 509 km, 97.2° (Epoch: 23 January)

Date Brightness Start Highest point End Pass type
(mag) Time Alt. Az. Time Alt. Az. Time Alt. Az.
24 Jan 8.0 05:48:27 10° NNE 05:52:00 42° E 05:55:28 10° S visible
24 Jan 9.3 18:01:15 10° SSW 18:04:19 24° W 18:07:25 10° NW visible
25 Jan 9.3 05:24:13 10° NE 05:27:11 22° E 05:30:05 10° SSE visible
25 Jan 7.9 17:35:57 10° S 17:39:31 45° W 17:43:08 10° NNW visible
26 Jan 10.1 05:00:42 10° ENE 05:02:17 12° E 05:03:50 10° ESE visible
26 Jan 6.7 06:32:27 10° N 06:36:06 56° WNW 06:39:39 10° SSW visible
26 Jan 6.7 17:11:05 10° SSE 17:14:48 90° WSW 17:18:35 10° NNW visible
27 Jan 6.8 06:07:44 10° NNE 06:11:27 73° ESE 06:15:03 10° S visible
27 Jan 10.0 18:21:38 10° SW 18:23:53 15° W 18:26:08 10° NW visible
28 Jan 8.3 05:43:16 10° NNE 05:46:42 36° E 05:50:03 10° SSE visible
28 Jan 9.1 17:55:48 10° SSW 17:59:01 27° W 18:02:16 10° NW visible
29 Jan 9.5 05:19:07 10° NE 05:21:51 20° E 05:24:33 10° SE visible
29 Jan 7.3 06:52:04 10° N 06:55:24 33° WNW 06:58:41 10° SW visible
29 Jan 7.7 17:30:36 10° S 17:34:13 52° W 17:37:54 10° NNW visible
30 Jan 10.3 04:56:06 10° ENE 04:56:56 11° E 04:57:45 10° E visible
30 Jan 6.5 06:27:10 10° N 06:30:49 65° WNW 06:34:22 10° SSW visible
31 Jan 7.1 06:02:29 10° NNE 06:06:08 63° E 06:09:41 10° S visible
31 Jan 9.9 18:16:00 10° SW 18:18:32 17° W 18:21:05 10° NW visible
01 Feb 8.6 05:38:03 10° NNE 05:41:21 31° E 05:44:35 10° SSE visible
01 Feb 8.8 17:50:20 10° SSW 17:53:41 31° W 17:57:03 10° NNW visible
02 Feb 9.7 05:14:01 10° NE 05:16:29 17° E 05:18:55 10° SE visible
02 Feb 7.1 06:46:42 10° N 06:50:06 37° WNW 06:53:25 10° SW visible
02 Feb 7.4 17:25:13 10° S 17:28:54 60° W 17:32:37 10° NNW visible
